Location: Nelson
(41.2830°S, 173.2830°E)
Time: 05:29:45
(UTC+13:00)

Meteor 1-26 Rocket - Pass Details

Date: 25 October 2019
Orbit: 817 x 918 km, 81.3° (Epoch: 19 November)

Event Time Altitude Azimuth Distance (km) Brightness Sun altitude
Rises 00:08:04 0° 209° (SSW) 3,388 8.3 -35.0°
Reaches altitude 10° 00:11:31 10° 231° (SW) 2,455 7.2 -35.2°
Maximum altitude 00:14:29 15° 264° (W) 2,129 6.5 -35.4°
Enters shadow 00:14:30 15° 264° (W) 2,129 6.5 -35.4°
